Vorticity
22 18 13 10 8 7 5 3 1 0 1 2 2 3 3 4 6 7 7 7 6 5 5 4 4 4 3 3 3 4 4 4 5 5 7 9 10 10 9 8 7 7 7 7 8 8 9 9 9 10 10 10 10 11 10 10 9 8 7 6 5 5 5 5 6 7 7 8 9
19 14 11 9 7 5 3 1 0 1 1 2 1 0 1 2 5 7 7 6 5 5 4 4 3 3 3 3 3 3 4 5 6 7 8 10 11 11 10 10 9 9 9 9 9 9 10 10 10 10 10 9 9 10 10 11 10 9 7 6 5 5 5 6 7 7 7 7 6
15 12 9 8 6 3 1 -0 0 1 1 -0 -1 -1 -0 2 5 6 7 6 5 4 3 3 3 3 3 4 4 5 6 7 8 10 11 12 12 12 12 11 11 11 11 11 11 11 10 10 10 10 9 9 8 8 9 11 11 9 7 6 5 5 6 7 7 7 7 7 6
13 11 8 6 4 1 -0 -1 0 0 -1 -2 -2 -1 0 3 5 6 7 6 5 4 3 4 4 4 4 5 6 8 9 10 11 12 13 13 13 13 12 12 12 12 12 12 12 11 11 10 10 9 9 8 8 8 9 11 10 9 7 5 5 6 7 7 7 7 7 7 6
12 9 7 4 2 0 -1 -1 -1 -1 -2 -3 -3 -2 0 3 6 6 6 5 4 4 4 4 5 5 6 7 8 10 11 13 13 14 13 13 12 12 12 12 12 13 13 13 12 11 10 9 9 9 8 8 8 8 8 9 8 7 7 6 7 7 7 7 7 7 7 7 7
11 8 5 2 0 -1 -1 -1 -1 -2 -3 -4 -4 -3 -1 3 5 5 4 3 4 5 5 5 5 6 6 8 9 11 13 14 14 13 12 12 11 11 12 12 13 13 13 12 11 10 9 9 8 8 8 8 8 8 8 8 8 7 6 7 8 8 7 8 6 6 6 7 7
9 6 3 0 -0 -1 -1 -2 -2 -2 -3 -4 -4 -4 -2 1 3 4 3 4 4 4 5 5 5 6 7 9 11 13 14 14 13 12 11 11 11 11 12 13 13 13 12 12 11 10 9 8 7 7 7 7 8 8 8 8 8 7 7 8 8 8 7 6 5 5 6 6 7
8 5 2 0 -1 -1 -2 -2 -2 -3 -3 -4 -4 -4 -3 0 2 3 3 3 3 4 4 4 5 6 8 10 13 14 14 13 11 10 10 11 11 12 13 13 13 13 12 11 10 9 8 7 7 7 7 7 8 8 8 8 8 8 8 8 7 7 7 6 5 6 6 6 6
7 3 0 -1 -2 -2 -2 -2 -3 -3 -3 -4 -5 -5 -3 -0 1 2 2 2 3 4 4 4 5 7 9 12 14 14 13 11 10 9 10 11 12 13 13 13 12 11 10 9 8 8 7 6 6 6 7 8 8 8 8 8 8 8 8 8 7 6 7 7 6 5 5 4 5
6 3 0 -1 -2 -3 -3 -3 -3 -3 -3 -4 -5 -5 -3 -1 0 1 1 3 4 4 4 4 6 8 11 14 14 13 11 9 8 9 11 12 13 13 13 12 11 10 9 8 7 6 6 6 6 7 8 9 10 9 9 9 9 8 8 8 8 8 7 7 5 5 4 5 5
5 2 0 -1 -2 -2 -3 -3 -3 -3 -4 -4 -5 -4 -3 -1 -1 0 2 4 4 4 4 5 7 10 12 14 13 11 9 7 8 9 11 12 13 13 12 11 9 8 7 7 6 5 5 5 6 8 9 10 11 10 10 9 9 9 9 9 10 9 8 5 5 5 6 5 5
4 1 -1 -2 -2 -2 -3 -3 -3 -4 -4 -4 -4 -4 -3 -2 -1 1 2 4 4 4 5 6 9 11 13 14 11 9 7 6 7 9 10 12 12 12 11 9 8 7 6 5 5 5 5 6 7 9 10 11 12 11 10 9 10 10 10 11 10 9 7 6 7 6 6 5 5
3 1 -1 -2 -3 -3 -3 -4 -4 -4 -4 -4 -4 -3 -2 -2 -0 1 3 4 4 5 6 7 10 13 14 13 10 7 6 6 7 9 10 11 11 10 9 8 7 6 5 5 5 5 6 7 9 10 11 12 11 11 10 10 11 11 11 10 8 7 7 7 7 6 6 7 10
3 1 -1 -2 -2 -3 -3 -4 -4 -4 -3 -3 -3 -2 -2 -1 -0 1 3 4 5 5 6 8 11 13 14 12 9 7 6 6 7 8 10 10 10 9 8 7 6 6 5 5 5 6 7 8 10 11 12 11 10 10 10 11 12 12 11 9 7 7 7 7 7 8 10 13 16
2 0 -1 -1 -2 -3 -4 -4 -4 -4 -3 -2 -1 -1 -1 -1 0 2 4 5 5 6 7 9 12 13 13 12 9 7 6 6 7 8 9 10 9 9 8 7 6 5 5 5 5 6 8 10 11 11 11 11 10 11 12 12 12 11 9 8 7 7 8 9 11 14 17 19 18
2 0 -1 -1 -2 -3 -4 -5 -4 -3 -2 -0 0 -0 -0 0 1 3 4 5 6 7 8 9 12 13 13 11 8 7 6 6 7 8 9 10 9 8 8 7 6 5 5 5 6 7 9 10 11 11 11 11 12 12 13 11 10 8 7 7 8 9 10 12 15 17 18 17 13
1 -0 -1 -1 -1 -2 -4 -5 -4 -3 -1 1 2 1 1 1 2 4 5 6 7 7 8 10 11 12 12 10 8 7 6 6 7 8 9 9 9 8 8 7 6 6 6 6 7 8 9 10 11 11 12 12 13 13 12 9 7 6 7 8 9 11 13 15 17 16 13 10 6
1 -0 -1 -1 -1 -2 -3 -5 -4 -2 -0 2 2 2 2 2 3 4 5 6 7 8 8 9 11 11 11 10 8 6 6 6 7 8 8 9 9 9 8 8 7 7 6 7 8 9 10 10 10 11 12 13 12 10 8 5 5 6 8 10 11 13 15 16 14 11 7 4 4
-0 -1 -2 -2 -2 -1 -1 -2 -1 -1 -0 1 1 1 1 2 3 4 6 7 7 8 8 8 10 11 11 10 8 6 6 6 7 7 8 9 9 9 9 8 8 8 8 8 9 10 10 10 10 11 11 10 8 6 5 5 7 9 11 13 14 15 15 13 9 6 4 3 4
-2 -3 -4 -4 -2 -1 1 1 2 2 2 1 0 -0 0 2 3 4 6 8 8 8 8 8 10 11 12 11 8 7 6 6 6 8 9 10 10 10 10 9 9 9 9 10 10 10 10 9 9 10 10 8 6 6 7 8 10 12 14 15 15 14 12 8 5 4 3 4 6
-3 -3 -4 -4 -3 -1 1 3 4 5 5 3 0 -1 -1 1 3 5 7 9 9 9 8 9 11 12 12 11 9 7 6 6 6 8 9 10 11 11 11 10 10 10 10 11 11 11 10 9 9 9 9 8 8 9 9 10 12 14 15 15 13 11 7 4 3 3 4 6 8
-2 -2 -3 -4 -3 -2 0 3 5 6 6 3 -0 -1 -0 3 5 7 8 9 8 8 8 9 11 12 13 12 10 8 7 6 7 8 9 11 12 12 12 12 12 11 11 12 11 11 10 9 8 8 8 9 10 9 9 10 13 14 15 13 10 7 4 3 3 5 6 8 9
2 1 -1 -3 -2 -1 1 3 5 5 4 0 -2 -1 2 6 8 9 9 9 8 7 7 9 11 12 12 12 10 9 7 7 7 8 9 11 12 13 14 14 14 13 13 13 12 11 9 7 6 7 8 9 8 8 8 11 14 14 12 9 6 4 3 3 5 7 8 9 9
5 4 2 -1 -1 -1 1 4 5 3 -1 -5 -2 2 7 11 12 12 12 11 9 8 8 9 10 11 11 11 10 9 8 7 8 8 9 11 12 14 15 16 16 15 14 13 11 10 9 7 7 7 7 7 7 8 10 14 14 12 8 5 3 2 3 5 7 8 9 9 8
7 7 5 1 -0 0 3 6 4 -1 -5 -5 1 7 12 14 14 14 13 12 11 10 9 8 8 9 9 9 9 8 8 8 8 9 10 11 13 15 16 17 17 16 14 12 10 9 8 8 8 7 7 6 7 10 13 15 12 8 5 2 2 3 5 7 8 9 9 8 7
7 7 6 3 2 4 6 6 1 -3 -5 -1 5 10 14 15 14 13 11 9 8 7 6 5 5 6 6 6 7 7 8 9 9 10 11 12 13 16 17 18 17 15 13 10 9 9 8 8 8 7 7 8 11 13 14 13 8 4 2 2 4 5 7 8 9 9 8 7 6
6 5 5 5 8 10 9 4 -2 -3 -1 3 5 8 10 11 11 9 7 5 4 3 2 2 2 2 3 3 5 6 8 9 10 11 12 13 15 17 18 17 15 13 11 9 9 8 8 7 7 7 9 12 15 15 12 7 4 2 2 4 6 8 9 10 9 8 7 6 6
6 5 6 8 10 10 8 2 -2 -2 -1 2 1 1 2 4 5 4 2 1 2 2 2 2 1 0 1 2 3 5 7 9 11 12 13 14 17 18 18 15 13 11 10 9 8 7 7 7 9 12 15 17 16 12 7 2 2 2 4 6 8 9 10 10 8 7 6 6 5
5 2 2 4 7 7 6 4 2 -1 -3 -3 -2 -3 -3 -3 -3 -3 -2 -1 2 5 6 6 3 1 -0 0 3 5 7 10 11 13 14 16 19 19 17 13 11 10 9 8 7 7 8 11 15 18 19 16 11 6 2 1 2 4 6 8 9 10 9 8 7 7 6 5 5
4 0 -1 -2 1 2 4 5 4 1 -2 -3 -2 -2 -4 -6 -8 -7 -6 -4 1 7 12 12 7 2 -1 -0 2 5 8 11 12 14 17 19 19 18 15 12 10 9 8 7 7 9 12 17 20 19 16 10 5 2 2 3 4 6 8 9 10 9 8 7 6 6 5 5 5
5 -1 -4 -7 -6 -4 -1 2 2 2 2 3 4 3 1 -3 -7 -8 -7 -5 0 9 16 19 12 5 0 0 2 5 8 11 14 17 20 21 19 16 12 10 10 9 8 8 10 14 17 20 19 14 9 4 2 2 3 4 6 8 9 10 9 8 7 6 6 5 5 5 5
9 2 -2 -5 -6 -5 -2 1 3 6 8 10 10 9 7 2 -2 -3 -4 -4 1 9 16 17 11 5 2 2 4 7 10 13 17 20 22 21 17 13 11 10 10 9 9 11 14 17 19 18 13 8 4 2 2 3 4 6 8 9 10 10 8 7 6 6 5 5 5 5 6
16 10 5 1 -0 -1 0 3 7 11 14 17 16 15 12 8 5 3 0 -2 3 9 12 11 7 4 3 4 6 9 13 17 20 22 22 20 15 12 10 11 11 11 11 13 16 17 16 13 8 4 2 2 3 4 6 7 9 10 10 9 8 7 6 5 5 5 5 5 6
18 15 11 8 5 4 4 5 10 14 18 20 19 17 15 13 11 8 4 1 3 7 9 8 5 3 3 4 8 11 16 20 22 22 20 17 14 12 11 12 12 11 11 11 13 13 11 7 4 3 2 3 4 5 7 9 10 10 9 8 7 6 5 5 5 5 5 6 7
12 12 11 9 7 5 5 5 9 13 15 16 15 14 14 14 13 10 6 2 3 5 7 7 4 2 3 5 9 13 18 21 22 21 17 13 12 12 12 13 10 9 8 9 10 9 7 5 3 3 3 4 5 7 8 10 10 9 8 7 6 5 5 5 5 5 6 6 7
7 7 7 6 6 6 6 7 9 11 12 11 9 8 8 10 9 8 6 4 3 4 6 7 5 3 3 6 12 17 21 22 20 17 13 9 10 12 13 12 8 7 8 10 9 7 5 4 3 3 3 5 6 8 9 10 9 8 7 6 5 5 5 5 5 6 6 7 7
9 8 8 8 9 9 10 10 10 10 10 7 4 2 2 4 5 6 6 5 3 4 6 9 7 5 5 10 17 21 23 21 16 12 8 6 9 12 14 11 8 8 8 9 8 6 4 4 3 4 4 6 7 9 10 10 9 7 6 6 5 5 5 5 6 6 7 7 7
9 11 13 14 14 13 12 11 10 9 6 3 -1 -2 -1 1 4 6 7 6 4 5 7 11 9 9 10 16 21 23 22 19 14 9 5 4 9 14 16 14 11 9 8 8 7 6 4 4 4 4 5 7 8 9 9 9 7 7 6 5 5 5 5 5 6 7 7 7 6
2 6 9 11 11 10 8 7 5 3 1 -3 -4 -3 -1 2 5 7 7 6 5 6 9 12 12 13 16 19 22 22 20 17 12 7 2 1 7 13 18 17 14 12 10 8 7 5 4 4 4 5 7 9 9 9 9 8 7 6 5 5 5 5 5 6 7 7 7 7 6
-10 -5 -2 1 1 1 -0 -2 -3 -4 -4 -5 -3 -0 3 6 8 8 7 6 7 10 12 13 13 15 18 20 22 20 18 14 11 5 -1 -3 5 11 16 18 16 13 10 7 5 4 4 4 4 6 8 10 10 9 8 7 6 6 5 5 5 5 6 6 7 7 7 6 6
-14 -11 -9 -8 -7 -6 -5 -5 -5 -4 -3 -1 3 6 9 11 10 9 9 9 11 13 15 14 14 15 17 19 21 20 17 12 8 1 -4 -3 4 10 13 15 13 10 7 5 4 3 3 4 5 7 9 10 10 9 8 7 6 5 5 5 5 5 6 7 7 7 7 6 6
Height
3067 3069 3071 3073 3075 3077 3080 3082 3084 3086 3088 3090 3091 3092 3092 3093 3094 3095 3096 3097 3098 3099 3100 3100 3101 3102 3103 3104 3105 3106 3106 3107 3108 3108 3109 3110 3110 3110 3111 3111 3111 3111 3111 3112 3112 3112 3112 3113 3114 3114 3115 3115 3115 3116 3116 3117 3117 3117 3116 3116 3116 3115 3115 3115 3115 3115 3115 3114 3114
3067 3069 3071 3073 3075 3077 3080 3082 3084 3086 3088 3089 3090 3091 3092 3093 3094 3095 3095 3096 3097 3098 3099 3100 3101 3102 3103 3104 3105 3105 3106 3107 3107 3108 3108 3109 3110 3110 3110 3110 3110 3111 3111 3111 3111 3111 3112 3112 3113 3113 3114 3114 3115 3115 3115 3116 3116 3116 3115 3115 3115 3115 3115 3115 3114 3114 3114 3113 3113
3067 3069 3071 3073 3075 3077 3080 3082 3084 3085 3087 3088 3090 3090 3091 3092 3093 3094 3095 3096 3097 3098 3099 3100 3101 3102 3103 3104 3104 3105 3105 3106 3107 3107 3108 3108 3109 3109 3109 3109 3110 3110 3110 3110 3110 3111 3111 3112 3112 3112 3113 3113 3114 3114 3115 3115 3115 3115 3115 3114 3114 3114 3114 3114 3114 3113 3113 3112 3112
3067 3069 3071 3073 3075 3078 3080 3082 3084 3085 3087 3088 3089 3090 3091 3092 3093 3094 3094 3095 3096 3097 3098 3099 3100 3101 3102 3103 3104 3104 3105 3105 3106 3106 3107 3107 3107 3108 3108 3108 3109 3109 3109 3110 3110 3110 3111 3111 3111 3112 3112 3112 3113 3113 3114 3114 3114 3114 3114 3114 3113 3113 3113 3113 3113 3112 3112 3112 3112
3067 3069 3071 3073 3075 3078 3080 3082 3084 3085 3087 3088 3089 3090 3090 3091 3092 3093 3094 3095 3095 3097 3098 3099 3100 3101 3102 3102 3103 3104 3104 3105 3105 3105 3106 3106 3106 3107 3107 3107 3108 3108 3108 3109 3109 3110 3110 3110 3111 3111 3111 3112 3112 3112 3113 3113 3113 3113 3113 3113 3113 3113 3112 3112 3112 3111 3111 3111 3111
3067 3069 3071 3073 3075 3078 3080 3082 3083 3085 3086 3087 3089 3090 3090 3091 3092 3092 3093 3094 3095 3096 3097 3098 3100 3100 3101 3102 3102 3103 3103 3104 3104 3104 3105 3105 3105 3105 3106 3106 3107 3107 3107 3108 3108 3109 3109 3110 3110 3110 3111 3111 3111 3111 3112 3112 3112 3112 3112 3112 3112 3112 3111 3111 3111 3111 3111 3111 3111
3067 3069 3071 3073 3075 3077 3079 3081 3083 3084 3086 3087 3088 3089 3090 3090 3091 3091 3092 3093 3095 3096 3097 3098 3099 3100 3100 3101 3102 3102 3102 3103 3103 3104 3104 3104 3105 3105 3105 3105 3106 3106 3107 3107 3108 3108 3109 3109 3109 3110 3110 3110 3110 3111 3111 3111 3111 3111 3111 3111 3111 3111 3110 3110 3110 3110 3110 3110 3110
3067 3069 3070 3073 3075 3077 3079 3081 3082 3084 3085 3086 3087 3088 3089 3090 3090 3090 3091 3093 3094 3095 3096 3097 3098 3099 3100 3100 3101 3101 3102 3102 3102 3103 3103 3103 3104 3104 3104 3105 3105 3105 3106 3106 3107 3107 3108 3108 3109 3109 3109 3110 3110 3110 3110 3110 3110 3110 3110 3110 3110 3110 3110 3110 3110 3110 3110 3110 3110
3066 3068 3070 3072 3075 3077 3079 3080 3082 3083 3085 3086 3087 3088 3088 3089 3089 3090 3091 3092 3093 3095 3096 3097 3098 3099 3099 3100 3100 3100 3101 3101 3102 3102 3102 3103 3103 3103 3104 3104 3105 3105 3105 3106 3106 3107 3107 3108 3108 3108 3109 3109 3109 3109 3109 3109 3110 3110 3110 3109 3109 3109 3109 3109 3109 3109 3109 3109 3109
3066 3068 3070 3072 3074 3076 3078 3080 3081 3083 3084 3085 3086 3087 3087 3088 3088 3089 3090 3091 3093 3094 3095 3096 3097 3098 3098 3099 3099 3100 3100 3100 3101 3101 3102 3102 3102 3103 3103 3104 3104 3105 3105 3105 3106 3106 3107 3107 3107 3108 3108 3108 3108 3108 3109 3109 3109 3109 3109 3109 3108 3108 3108 3109 3109 3109 3109 3108 3108
3066 3068 3070 3072 3074 3075 3077 3079 3080 3082 3083 3084 3085 3086 3086 3087 3087 3088 3090 3091 3092 3094 3095 3096 3096 3097 3098 3098 3099 3099 3100 3100 3100 3100 3101 3101 3102 3102 3103 3103 3104 3104 3105 3105 3105 3106 3106 3106 3107 3107 3107 3107 3107 3107 3108 3108 3108 3108 3108 3108 3108 3108 3108 3109 3108 3108 3108 3107 3107
3066 3068 3070 3072 3073 3075 3076 3078 3080 3081 3082 3083 3085 3085 3085 3086 3087 3088 3089 3090 3092 3093 3094 3095 3096 3097 3097 3098 3098 3098 3099 3099 3100 3100 3100 3101 3101 3102 3102 3103 3103 3104 3104 3104 3105 3105 3105 3105 3106 3106 3106 3106 3106 3107 3107 3107 3107 3107 3107 3107 3107 3108 3108 3108 3108 3107 3107 3106 3106
3066 3068 3070 3071 3073 3075 3076 3077 3079 3080 3081 3083 3084 3084 3085 3085 3086 3087 3089 3090 3091 3092 3093 3095 3095 3096 3097 3097 3097 3098 3098 3099 3099 3099 3100 3100 3101 3101 3102 3102 3102 3103 3103 3104 3104 3104 3105 3105 3105 3105 3105 3105 3106 3106 3106 3106 3106 3106 3106 3107 3107 3107 3107 3107 3107 3106 3106 3106 3105
3065 3067 3069 3071 3072 3074 3075 3077 3078 3080 3081 3082 3083 3084 3084 3085 3085 3087 3088 3089 3090 3092 3093 3094 3095 3095 3096 3096 3097 3097 3098 3098 3098 3099 3099 3100 3100 3100 3101 3101 3102 3102 3103 3103 3103 3104 3104 3104 3104 3104 3105 3105 3105 3105 3105 3105 3106 3106 3106 3106 3106 3106 3106 3106 3106 3105 3105 3105 3105
3065 3067 3069 3070 3072 3074 3075 3077 3078 3079 3080 3081 3082 3083 3083 3084 3085 3086 3088 3089 3090 3091 3092 3093 3094 3095 3095 3095 3096 3097 3097 3097 3098 3098 3099 3099 3099 3100 3100 3101 3101 3101 3102 3102 3102 3103 3103 3103 3103 3104 3104 3104 3104 3105 3105 3105 3105 3106 3106 3106 3106 3106 3105 3105 3105 3105 3105 3104 3104
3065 3067 3069 3070 3072 3074 3075 3076 3078 3079 3080 3081 3082 3082 3083 3084 3085 3086 3087 3088 3089 3090 3091 3093 3093 3094 3095 3095 3095 3096 3096 3097 3097 3098 3098 3098 3099 3099 3100 3100 3100 3101 3101 3101 3102 3102 3102 3102 3103 3103 3103 3104 3104 3104 3105 3105 3105 3105 3105 3105 3105 3105 3105 3105 3104 3104 3104 3104 3103
3065 3067 3068 3070 3072 3074 3075 3076 3078 3079 3080 3080 3081 3082 3082 3083 3085 3086 3087 3088 3089 3090 3091 3092 3093 3093 3094 3094 3095 3095 3096 3096 3097 3097 3097 3098 3098 3099 3099 3099 3100 3100 3100 3100 3101 3101 3101 3101 3102 3102 3103 3103 3104 3104 3104 3105 3105 3105 3105 3105 3104 3104 3104 3104 3104 3103 3103 3103 3103
3065 3066 3068 3070 3072 3074 3075 3076 3078 3079 3080 3080 3081 3081 3082 3083 3084 3085 3086 3088 3089 3089 3090 3091 3092 3092 3093 3094 3094 3095 3095 3096 3096 3096 3097 3097 3098 3098 3098 3099 3099 3099 3099 3100 3100 3100 3101 3101 3101 3102 3102 3103 3103 3103 3104 3104 3104 3104 3104 3104 3104 3103 3103 3103 3103 3103 3103 3102 3102
3064 3066 3068 3070 3073 3074 3075 3076 3077 3078 3080 3080 3081 3081 3082 3083 3084 3085 3086 3087 3088 3089 3090 3090 3091 3091 3092 3093 3094 3094 3095 3095 3095 3096 3096 3097 3097 3097 3098 3098 3098 3098 3099 3099 3099 3100 3100 3100 3101 3101 3102 3102 3102 3103 3103 3103 3103 3103 3103 3103 3103 3103 3102 3102 3102 3102 3102 3102 3101
3064 3066 3068 3071 3072 3074 3075 3076 3077 3078 3079 3080 3080 3081 3081 3082 3083 3085 3085 3087 3088 3088 3089 3090 3090 3091 3091 3092 3093 3093 3094 3095 3095 3095 3095 3096 3096 3096 3097 3097 3097 3098 3098 3098 3099 3099 3100 3100 3100 3101 3101 3102 3102 3102 3102 3102 3102 3102 3102 3102 3102 3102 3102 3102 3101 3101 3101 3101 3101
3063 3065 3068 3070 3072 3073 3074 3075 3076 3077 3078 3079 3080 3080 3081 3082 3083 3084 3085 3086 3087 3088 3088 3089 3090 3090 3091 3092 3092 3093 3093 3094 3094 3095 3095 3095 3095 3096 3096 3096 3097 3097 3097 3098 3098 3099 3099 3100 3100 3100 3101 3101 3101 3102 3102 3102 3102 3101 3101 3101 3101 3101 3101 3101 3101 3101 3101 3100 3100
3062 3065 3067 3070 3071 3072 3072 3073 3075 3076 3077 3078 3079 3080 3080 3081 3082 3084 3085 3085 3086 3087 3088 3088 3089 3090 3090 3091 3091 3092 3093 3093 3093 3094 3094 3095 3095 3095 3095 3096 3096 3096 3097 3097 3098 3098 3099 3099 3100 3100 3100 3100 3101 3101 3101 3101 3101 3101 3101 3101 3101 3101 3101 3100 3100 3100 3100 3100 3099
3061 3064 3066 3068 3069 3070 3071 3072 3074 3075 3076 3077 3078 3079 3080 3081 3082 3083 3084 3085 3086 3086 3087 3088 3088 3089 3090 3090 3091 3091 3092 3092 3093 3093 3093 3094 3094 3095 3095 3095 3095 3096 3096 3097 3097 3098 3098 3099 3099 3099 3100 3100 3100 3100 3100 3100 3100 3100 3100 3100 3100 3100 3100 3100 3100 3100 3099 3099 3099
3061 3063 3065 3066 3067 3068 3069 3071 3073 3074 3075 3077 3078 3079 3080 3080 3081 3082 3083 3084 3085 3086 3086 3087 3088 3089 3089 3090 3090 3091 3091 3091 3092 3092 3093 3093 3093 3094 3094 3095 3095 3095 3096 3096 3097 3097 3098 3098 3098 3099 3099 3099 3099 3099 3099 3100 3100 3100 3100 3100 3100 3100 3100 3100 3099 3099 3099 3099 3098
3060 3062 3064 3065 3066 3067 3069 3070 3072 3074 3075 3076 3078 3079 3079 3080 3081 3082 3083 3084 3085 3085 3086 3087 3087 3088 3089 3089 3090 3090 3090 3091 3091 3091 3092 3092 3093 3093 3093 3094 3095 3095 3095 3096 3096 3097 3097 3097 3098 3098 3098 3099 3099 3099 3099 3099 3099 3099 3099 3100 3099 3099 3099 3099 3099 3099 3098 3098 3098
3059 3061 3063 3064 3065 3066 3068 3070 3072 3074 3075 3076 3077 3078 3079 3080 3080 3081 3082 3083 3084 3085 3085 3086 3087 3087 3088 3088 3089 3089 3090 3090 3090 3090 3091 3091 3092 3092 3093 3093 3094 3095 3095 3095 3096 3096 3096 3097 3097 3097 3098 3098 3098 3098 3098 3099 3099 3099 3099 3099 3099 3099 3099 3099 3099 3098 3098 3098 3097
3059 3060 3062 3063 3064 3066 3068 3070 3071 3073 3075 3076 3077 3077 3078 3079 3080 3080 3081 3082 3083 3084 3085 3085 3086 3086 3087 3087 3088 3088 3089 3089 3089 3090 3090 3090 3091 3092 3092 3093 3094 3094 3095 3095 3095 3095 3096 3096 3096 3097 3097 3097 3097 3098 3098 3098 3099 3099 3099 3099 3099 3099 3099 3098 3098 3098 3098 3097 3097
3058 3059 3061 3062 3064 3065 3067 3069 3071 3073 3074 3075 3076 3077 3078 3078 3079 3080 3081 3081 3082 3083 3084 3085 3085 3086 3086 3086 3087 3087 3088 3088 3089 3089 3090 3090 3090 3091 3092 3092 3093 3094 3094 3095 3095 3095 3095 3095 3096 3096 3096 3097 3097 3097 3098 3098 3098 3098 3098 3099 3099 3098 3098 3098 3098 3097 3097 3097 3096
3057 3058 3060 3061 3063 3065 3067 3069 3071 3072 3073 3075 3075 3076 3077 3078 3079 3079 3080 3081 3082 3082 3083 3084 3084 3085 3085 3085 3086 3086 3087 3087 3088 3088 3089 3089 3090 3090 3091 3092 3093 3093 3094 3094 3094 3095 3095 3095 3095 3096 3096 3096 3097 3097 3097 3097 3098 3098 3098 3098 3098 3098 3098 3098 3097 3097 3097 3096 3096
3056 3057 3059 3061 3063 3065 3067 3068 3070 3071 3072 3074 3075 3075 3076 3077 3078 3079 3079 3080 3081 3081 3082 3083 3083 3084 3085 3085 3085 3085 3086 3087 3087 3088 3088 3089 3090 3090 3091 3091 3092 3093 3093 3094 3094 3094 3095 3095 3095 3095 3096 3096 3096 3097 3097 3097 3097 3098 3098 3098 3098 3098 3097 3097 3097 3097 3096 3096 3095
3055 3057 3059 3060 3063 3065 3066 3068 3069 3070 3071 3072 3073 3075 3075 3077 3077 3078 3079 3079 3080 3081 3081 3082 3083 3083 3084 3084 3085 3085 3085 3086 3087 3087 3088 3089 3089 3090 3090 3091 3091 3092 3093 3093 3094 3094 3094 3095 3095 3095 3095 3096 3096 3096 3097 3097 3097 3098 3098 3098 3097 3097 3097 3097 3096 3096 3096 3095 3095
3054 3056 3058 3060 3062 3064 3065 3067 3068 3069 3070 3071 3072 3073 3075 3076 3077 3077 3078 3079 3080 3080 3081 3081 3082 3082 3083 3083 3084 3084 3085 3085 3086 3087 3088 3088 3089 3089 3090 3091 3091 3092 3092 3093 3093 3094 3094 3095 3095 3095 3095 3096 3096 3096 3096 3097 3097 3097 3097 3097 3097 3097 3096 3096 3096 3095 3095 3095 3094
3054 3056 3058 3060 3061 3063 3064 3065 3067 3068 3069 3070 3071 3072 3074 3075 3076 3077 3078 3079 3080 3080 3080 3081 3081 3081 3082 3082 3083 3084 3084 3085 3085 3086 3087 3088 3089 3089 3090 3090 3091 3092 3092 3093 3093 3094 3094 3094 3095 3095 3095 3095 3096 3096 3096 3097 3097 3097 3097 3096 3096 3096 3096 3096 3095 3095 3095 3094 3093
3053 3055 3057 3059 3060 3062 3063 3064 3065 3066 3068 3069 3070 3071 3072 3074 3075 3076 3077 3079 3079 3080 3080 3080 3080 3081 3081 3082 3082 3083 3084 3085 3085 3086 3087 3088 3088 3089 3090 3090 3091 3091 3092 3092 3093 3093 3094 3094 3094 3095 3095 3095 3096 3096 3096 3096 3096 3096 3096 3096 3096 3096 3095 3095 3095 3094 3094 3093 3092
3052 3054 3056 3058 3059 3060 3062 3063 3064 3065 3066 3067 3069 3070 3071 3073 3074 3075 3076 3078 3078 3079 3080 3080 3080 3080 3081 3081 3082 3082 3083 3084 3085 3086 3086 3087 3088 3089 3089 3090 3091 3091 3092 3092 3092 3093 3093 3094 3094 3095 3095 3095 3095 3095 3096 3096 3096 3096 3096 3096 3095 3095 3095 3095 3094 3094 3093 3092 3092
3051 3053 3055 3056 3058 3059 3060 3061 3062 3064 3065 3066 3068 3069 3070 3072 3073 3074 3075 3077 3077 3078 3079 3079 3080 3080 3080 3081 3081 3082 3083 3084 3085 3085 3086 3087 3088 3089 3089 3090 3090 3091 3091 3092 3092 3093 3093 3093 3094 3094 3095 3095 3095 3095 3095 3095 3095 3095 3095 3095 3095 3095 3094 3094 3093 3093 3092 3092 3091
3050 3052 3054 3055 3057 3058 3059 3060 3061 3063 3064 3065 3066 3068 3069 3070 3072 3073 3075 3075 3076 3077 3078 3078 3079 3079 3080 3080 3081 3081 3082 3083 3084 3085 3086 3087 3088 3088 3089 3090 3090 3091 3091 3092 3092 3093 3093 3093 3094 3094 3095 3095 3095 3095 3095 3095 3095 3095 3095 3095 3095 3094 3094 3093 3093 3092 3092 3091 3090
3050 3051 3053 3055 3056 3057 3058 3059 3060 3061 3063 3064 3065 3067 3068 3070 3071 3072 3074 3075 3075 3076 3077 3077 3078 3079 3079 3080 3080 3081 3081 3083 3084 3085 3086 3086 3087 3088 3089 3089 3090 3090 3091 3091 3092 3092 3093 3093 3094 3094 3094 3094 3094 3094 3094 3094 3094 3094 3094 3094 3094 3094 3093 3093 3092 3092 3091 3091 3090
3049 3050 3052 3054 3055 3056 3057 3058 3060 3061 3062 3064 3065 3066 3068 3069 3070 3072 3073 3074 3074 3075 3076 3076 3077 3078 3078 3079 3079 3080 3081 3082 3083 3084 3085 3086 3087 3088 3088 3089 3090 3090 3091 3091 3092 3092 3093 3093 3093 3094 3094 3094 3094 3094 3094 3094 3094 3094 3094 3094 3093 3093 3093 3092 3092 3091 3091 3090 3090
3048 3050 3051 3053 3054 3055 3056 3057 3059 3060 3062 3063 3065 3066 3067 3069 3070 3071 3072 3073 3073 3074 3075 3075 3076 3077 3077 3078 3078 3079 3080 3081 3082 3084 3085 3085 3086 3087 3088 3089 3090 3090 3090 3091 3091 3092 3092 3093 3093 3093 3093 3093 3093 3093 3093 3093 3093 3093 3093 3093 3093 3093 3092 3092 3092 3091 3091 3090 3090
3047 3049 3050 3051 3053 3054 3055 3056 3058 3060 3061 3063 3064 3065 3067 3068 3069 3070 3071 3071 3072 3073 3073 3074 3075 3075 3076 3077 3078 3079 3080 3081 3082 3083 3084 3085 3086 3087 3088 3089 3089 3090 3090 3090 3091 3091 3092 3092 3092 3093 3093 3093 3093 3093 3093 3093 3093 3093 3093 3093 3092 3092 3092 3092 3091 3091 3090 3090 3089